| time (UTC) | temp F | wind direction | speed knots | gust knots | rain 1hr in | rain 24hr in | rain mn in | humidity % | barometer mb |
| 20260508041711 | 62 | 208 | 0.0 | 0.0 | 0.00 | 0.00 | 0.00 | 93 | 1016.2 |
| 20260508041209 | 62 | 267 | 0.0 | 0.0 | 0.00 | 0.00 | 0.00 | 93 | 1015.9 |
| 20260508040705 | 61 | 228 | 0.0 | 0.0 | 0.00 | 0.00 | 0.00 | 93 | 1015.9 |
| 20260508040202 | 61 | 271 | 0.0 | 0.0 | 0.00 | 0.00 | 0.00 | 93 | 1015.9 |
| 20260508035659 | 62 | 225 | 0.0 | 0.0 | 0.00 | 0.00 | 0.00 | 93 | 1015.6 |
| 20260508035157 | 62 | 273 | 0.0 | 0.0 | 0.00 | 0.00 | 0.00 | 93 | 1015.9 |
| 20260508034653 | 62 | 237 | 0.0 | 0.0 | 0.00 | 0.00 | 0.00 | 93 | 1015.9 |
| 20260508034150 | 62 | 240 | 0.0 | 0.0 | 0.00 | 0.00 | 0.00 | 92 | 1015.6 |
| 20260508033648 | 62 | 237 | 0.0 | 0.0 | 0.00 | 0.00 | 0.00 | 92 | 1015.6 |
| 20260508033146 | 62 | 269 | 0.0 | 0.0 | 0.00 | 0.00 | 0.00 | 91 | 1015.6 |
| 20260508032643 | 62 | 245 | 0.0 | 0.0 | 0.00 | 0.00 | 0.00 | 91 | 1015.9 |
| 20260508032140 | 62 | 194 | 0.0 | 0.0 | 0.00 | 0.00 | 0.00 | 91 | 1015.6 |
| 20260508031637 | 62 | 248 | 0.0 | 0.0 | 0.00 | 0.00 | 0.00 | 90 | 1015.6 |
| 20260508031133 | 62 | 288 | 0.0 | 0.0 | 0.00 | 0.00 | 0.00 | 90 | 1015.2 |
| 20260508030629 | 62 | 239 | 0.0 | 0.0 | 0.00 | 0.00 | 0.00 | 91 | 1015.2 |
| 20260508030127 | 62 | 241 | 0.0 | 0.0 | 0.00 | 0.00 | 0.00 | 91 | 1015.2 |
| 20260508025623 | 62 | 231 | 0.0 | 0.0 | 0.00 | 0.00 | 0.00 | 90 | 1015.2 |
| 20260508025121 | 62 | 270 | 0.0 | 0.0 | 0.00 | 0.00 | 0.00 | 90 | 1014.9 |
| 20260508024616 | 63 | 241 | 0.9 | 4.3 | 0.00 | 0.00 | 0.00 | 89 | 1014.9 |
| 20260508024114 | 63 | 265 | 0.0 | 0.0 | 0.00 | 0.00 | 0.00 | 89 | 1014.9 |
| 20260508023610 | 62 | 245 | 0.0 | 0.0 | 0.00 | 0.00 | 0.00 | 90 | 1014.9 |
| 20260508023107 | 63 | 200 | 0.0 | 0.9 | 0.00 | 0.00 | 0.00 | 90 | 1014.9 |
| 20260508022603 | 63 | 250 | 0.9 | 1.7 | 0.00 | 0.00 | 0.00 | 90 | 1014.9 |
| 20260508022101 | 63 | 241 | 0.0 | 0.0 | 0.00 | 0.00 | 0.00 | 89 | 1014.9 |
| 20260508021556 | 63 | 227 | 6.1 | 8.7 | 0.00 | 0.00 | 0.00 | 89 | 1014.9 |
| 20260508021052 | 64 | 232 | 0.9 | 2.6 | 0.00 | 0.00 | 0.00 | 88 | 1014.9 |
| 20260508020550 | 64 | 267 | 0.9 | 1.7 | 0.00 | 0.00 | 0.00 | 88 | 1014.9 |
| 20260508020048 | 64 | 238 | 0.0 | 0.9 | 0.00 | 0.00 | 0.00 | 86 | 1014.6 |
| 20260508015545 | 64 | 233 | 6.1 | 7.0 | 0.00 | 0.00 | 0.00 | 84 | 1014.6 |
| 20260508015042 | 65 | 271 | 5.2 | 7.0 | 0.00 | 0.00 | 0.00 | 84 | 1014.9 |
| 20260508014538 | 65 | 240 | 0.0 | 0.0 | 0.00 | 0.00 | 0.00 | 84 | 1014.9 |
| 20260508014034 | 64 | 237 | 0.0 | 0.0 | 0.00 | 0.00 | 0.00 | 84 | 1014.9 |
| 20260508013530 | 65 | 253 | 7.0 | 8.7 | 0.00 | 0.00 | 0.00 | 84 | 1014.9 |
| 20260508013028 | 65 | 219 | 1.7 | 2.6 | 0.00 | 0.00 | 0.00 | 84 | 1014.6 |
| 20260508012525 | 64 | 240 | 5.2 | 7.0 | 0.00 | 0.00 | 0.00 | 87 | 1014.9 |
| 20260508012022 | 64 | 240 | 7.8 | 11.3 | 0.00 | 0.00 | 0.00 | 88 | 1014.6 |
| 20260508011520 | 64 | 257 | 8.7 | 9.6 | 0.00 | 0.00 | 0.00 | 87 | 1014.9 |
| 20260508011017 | 65 | 244 | 6.1 | 7.8 | 0.00 | 0.00 | 0.00 | 87 | 1014.6 |
| 20260508010514 | 65 | 266 | 5.2 | 6.1 | 0.00 | 0.00 | 0.00 | 87 | 1014.9 |
| 20260508010012 | 65 | 232 | 0.0 | 0.0 | 0.00 | 0.00 | 0.00 | 87 | 1014.6 |
| 20260508005508 | 65 | 224 | 6.1 | 7.8 | 0.00 | 0.00 | 0.00 | 87 | 1014.9 |
| 20260508005005 | 65 | 241 | 4.3 | 6.1 | 0.00 | 0.00 | 0.00 | 87 | 1014.6 |
| 20260508004501 | 65 | 234 | 5.2 | 7.8 | 0.00 | 0.00 | 0.00 | 85 | 1014.6 |
| 20260508003958 | 65 | 270 | 5.2 | 6.1 | 0.00 | 0.00 | 0.00 | 86 | 1014.9 |
| 20260508003454 | 66 | 261 | 4.3 | 6.1 | 0.00 | 0.00 | 0.00 | 85 | 1014.6 |
| 20260508002952 | 65 | 238 | 6.1 | 8.7 | 0.00 | 0.00 | 0.00 | 85 | 1014.9 |
| 20260508002448 | 65 | 264 | 6.1 | 7.8 | 0.00 | 0.00 | 0.00 | 85 | 1014.9 |
| 20260508001944 | 66 | 197 | 5.2 | 7.0 | 0.00 | 0.00 | 0.00 | 85 | 1014.9 |
| 20260508001440 | 66 | 220 | 4.3 | 5.2 | 0.00 | 0.00 | 0.00 | 85 | 1014.9 |
| 20260508000937 | 66 | 244 | 7.8 | 9.6 | 0.00 | 0.00 | 0.00 | 84 | 1014.9 |
| 20260508000434 | 66 | 256 | 7.0 | 9.6 | 0.00 | 0.00 | 0.00 | 84 | 1014.6 |
| 20260507235930 | 66 | 217 | 10.4 | 13.9 | 0.00 | 0.00 | 0.00 | 85 | 1014.6 |
| 20260507235427 | 67 | 250 | 6.1 | 7.0 | 0.00 | 0.00 | 0.00 | 85 | 1014.6 |
| 20260507234924 | 66 | 230 | 6.1 | 8.7 | 0.00 | 0.00 | 0.00 | 86 | 1014.9 |
| 20260507234421 | 67 | 255 | 8.7 | 12.2 | 0.00 | 0.00 | 0.00 | 84 | 1014.6 |
| 20260507233917 | 66 | 220 | 9.6 | 12.2 | 0.00 | 0.00 | 0.00 | 85 | 1014.9 |
| 20260507233414 | 67 | 218 | 8.7 | 12.2 | 0.00 | 0.00 | 0.00 | 85 | 1014.9 |
| 20260507232913 | 67 | 240 | 5.2 | 8.7 | 0.00 | 0.00 | 0.00 | 85 | 1014.9 |
| 20260507232409 | 67 | 216 | 7.0 | 8.7 | 0.00 | 0.00 | 0.00 | 86 | 1014.9 |
| 20260507231906 | 66 | 230 | 6.1 | 9.6 | 0.00 | 0.00 | 0.00 | 85 | 1014.9 |
| 20260507231403 | 67 | 221 | 10.4 | 12.2 | 0.00 | 0.00 | 0.00 | 84 | 1014.9 |
| 20260507230859 | 67 | 249 | 7.0 | 8.7 | 0.00 | 0.00 | 0.00 | 84 | 1014.9 |
| 20260507230357 | 67 | 248 | 7.8 | 8.7 | 0.00 | 0.00 | 0.00 | 83 | 1014.9 |
| 20260507225856 | 67 | 223 | 9.6 | 14.8 | 0.00 | 0.00 | 0.00 | 83 | 1014.9 |
| 20260507225353 | 67 | 248 | 7.0 | 11.3 | 0.00 | 0.00 | 0.00 | 84 | 1014.9 |
| 20260507224849 | 68 | 264 | 9.6 | 11.3 | 0.00 | 0.00 | 0.00 | 82 | 1014.9 |
| 20260507224346 | 67 | 233 | 5.2 | 7.8 | 0.00 | 0.00 | 0.00 | 83 | 1014.9 |
| 20260507223841 | 67 | 225 | 9.6 | 11.3 | 0.00 | 0.00 | 0.00 | 84 | 1014.9 |
| 20260507223338 | 68 | 218 | 2.6 | 4.3 | 0.00 | 0.00 | 0.00 | 82 | 1014.9 |
| 20260507222835 | 67 | 225 | 5.2 | 6.1 | 0.00 | 0.00 | 0.00 | 83 | 1015.2 |
| 20260507222331 | 68 | 258 | 7.8 | 15.6 | 0.00 | 0.00 | 0.00 | 82 | 1015.2 |
| 20260507221829 | 66 | 206 | 5.2 | 7.8 | 0.00 | 0.00 | 0.00 | 84 | 1015.2 |
| 20260507221325 | 67 | 236 | 11.3 | 13.0 | 0.00 | 0.00 | 0.00 | 82 | 1015.2 |
| 20260507220821 | 68 | 217 | 8.7 | 13.0 | 0.00 | 0.00 | 0.00 | 82 | 1015.2 |
| 20260507220320 | 67 | 209 | 6.1 | 7.0 | 0.00 | 0.00 | 0.00 | 81 | 1015.2 |
| 20260507215815 | 67 | 264 | 11.3 | 13.9 | 0.00 | 0.00 | 0.00 | 81 | 1015.2 |
| 20260507215313 | 67 | 263 | 9.6 | 12.2 | 0.00 | 0.00 | 0.00 | 82 | 1015.2 |
| 20260507214810 | 67 | 245 | 6.1 | 7.8 | 0.00 | 0.00 | 0.00 | 82 | 1015.2 |
| 20260507214308 | 67 | 257 | 10.4 | 12.2 | 0.00 | 0.00 | 0.00 | 82 | 1015.6 |
| 20260507213802 | 69 | 179 | 7.0 | 8.7 | 0.00 | 0.00 | 0.00 | 79 | 1015.2 |
| 20260507213259 | 69 | 208 | 5.2 | 7.8 | 0.00 | 0.00 | 0.00 | 79 | 1015.6 |
| 20260507212756 | 69 | 215 | 4.3 | 6.1 | 0.00 | 0.00 | 0.00 | 80 | 1015.6 |
| 20260507212252 | 68 | 222 | 6.1 | 8.7 | 0.00 | 0.00 | 0.00 | 81 | 1015.6 |
| 20260507211749 | 68 | 251 | 7.8 | 8.7 | 0.00 | 0.00 | 0.00 | 80 | 1015.6 |
| 20260507211245 | 68 | 262 | 7.8 | 7.8 | 0.00 | 0.00 | 0.00 | 81 | 1015.9 |
| 20260507210742 | 69 | 238 | 5.2 | 7.8 | 0.00 | 0.00 | 0.00 | 80 | 1015.9 |
| 20260507210239 | 68 | 205 | 4.3 | 7.0 | 0.00 | 0.00 | 0.00 | 82 | 1015.9 |
| 20260507205735 | 67 | 278 | 6.1 | 8.7 | 0.00 | 0.00 | 0.00 | 82 | 1015.6 |
| 20260507205227 | 67 | 239 | 9.6 | 9.6 | 0.00 | 0.00 | 0.00 | 82 | 1015.9 |
| 20260507204723 | 68 | 181 | 6.1 | 7.0 | 0.00 | 0.00 | 0.00 | 81 | 1015.9 |
| 20260507204221 | 68 | 225 | 12.2 | 13.9 | 0.00 | 0.00 | 0.00 | 81 | 1015.9 |
| 20260507203713 | 70 | 270 | 6.1 | 7.8 | 0.00 | 0.00 | 0.00 | 78 | 1015.9 |
| 20260507203210 | 69 | 256 | 3.5 | 5.2 | 0.00 | 0.00 | 0.00 | 78 | 1016.2 |
| 20260507202706 | 69 | 221 | 6.1 | 8.7 | 0.00 | 0.00 | 0.00 | 80 | 1016.2 |
| 20260507202202 | 69 | 258 | 7.8 | 11.3 | 0.00 | 0.00 | 0.00 | 79 | 1016.2 |
| 20260507201657 | 69 | 252 | 7.0 | 8.7 | 0.00 | 0.00 | 0.00 | 78 | 1015.9 |
| 20260507201154 | 69 | 187 | 5.2 | 7.0 | 0.00 | 0.00 | 0.00 | 79 | 1015.9 |
| 20260507200650 | 69 | 151 | 5.2 | 7.0 | 0.00 | 0.00 | 0.00 | 79 | 1016.2 |
| 20260507200146 | 70 | 244 | 7.0 | 7.8 | 0.00 | 0.00 | 0.00 | 78 | 1016.6 |
| 20260507195643 | 69 | 270 | 7.8 | 9.6 | 0.00 | 0.00 | 0.00 | 77 | 1016.2 |
| 20260507195140 | 69 | 276 | 8.7 | 9.6 | 0.00 | 0.00 | 0.00 | 79 | 1016.6 |
| 20260507194637 | 68 | 245 | 6.1 | 7.0 | 0.00 | 0.00 | 0.00 | 80 | 1016.6 |
| 20260507194132 | 68 | 252 | 8.7 | 12.2 | 0.00 | 0.00 | 0.00 | 81 | 1016.6 |
| 20260507193630 | 69 | 254 | 6.1 | 8.7 | 0.00 | 0.00 | 0.00 | 79 | 1016.6 |
| 20260507193127 | 68 | 275 | 8.7 | 9.6 | 0.00 | 0.00 | 0.00 | 80 | 1016.6 |
| 20260507192623 | 70 | 246 | 8.7 | 9.6 | 0.00 | 0.00 | 0.00 | 78 | 1016.6 |
| 20260507192120 | 68 | 219 | 3.5 | 5.2 | 0.00 | 0.00 | 0.00 | 81 | 1016.9 |
| 20260507191616 | 68 | 279 | 8.7 | 9.6 | 0.00 | 0.00 | 0.00 | 79 | 1016.6 |
| 20260507191112 | 68 | 170 | 4.3 | 6.1 | 0.00 | 0.00 | 0.00 | 79 | 1016.6 |
| 20260507190610 | 69 | 245 | 6.1 | 7.0 | 0.00 | 0.00 | 0.00 | 78 | 1016.9 |
| 20260507190109 | 70 | 276 | 7.8 | 9.6 | 0.00 | 0.00 | 0.00 | 77 | 1016.9 |
| 20260507185607 | 70 | 244 | 4.3 | 5.2 | 0.00 | 0.00 | 0.00 | 78 | 1016.9 |
| 20260507185103 | 69 | 264 | 6.1 | 7.8 | 0.00 | 0.00 | 0.00 | 79 | 1016.9 |
| 20260507184601 | 69 | 236 | 0.0 | 0.9 | 0.00 | 0.00 | 0.00 | 79 | 1016.6 |
| 20260507184059 | 68 | 241 | 7.0 | 7.0 | 0.00 | 0.00 | 0.00 | 80 | 1016.9 |
| 20260507183554 | 69 | 244 | 2.6 | 4.3 | 0.00 | 0.00 | 0.00 | 79 | 1016.9 |
| 20260507183051 | 68 | 256 | 6.1 | 7.0 | 0.00 | 0.00 | 0.00 | 79 | 1016.9 |
| 20260507182548 | 68 | 292 | 7.0 | 8.7 | 0.00 | 0.00 | 0.00 | 80 | 1016.9 |
| 20260507182044 | 69 | 305 | 3.5 | 5.2 | 0.00 | 0.00 | 0.00 | 79 | 1016.9 |
| 20260507181541 | 70 | 193 | 3.5 | 4.3 | 0.00 | 0.00 | 0.00 | 77 | 1016.9 |
| 20260507181037 | 69 | 223 | 0.0 | 0.0 | 0.00 | 0.00 | 0.00 | 79 | 1016.9 |
| 20260507180533 | 68 | 274 | 6.1 | 8.7 | 0.00 | 0.00 | 0.00 | 78 | 1016.9 |
| 20260507180031 | 68 | 210 | 2.6 | 5.2 | 0.00 | 0.00 | 0.00 | 81 | 1016.9 |
| 20260507175526 | 68 | 235 | 6.1 | 7.0 | 0.00 | 0.00 | 0.00 | 79 | 1017.3 |
| 20260507175025 | 68 | 203 | 2.6 | 2.6 | 0.00 | 0.00 | 0.00 | 80 | 1017.3 |
| 20260507174521 | 67 | 274 | 4.3 | 6.1 | 0.00 | 0.00 | 0.00 | 82 | 1017.3 |
| 20260507174019 | 67 | 167 | 0.0 | 0.0 | 0.00 | 0.00 | 0.00 | 81 | 1016.9 |
| 20260507173516 | 68 | 265 | 5.2 | 7.0 | 0.00 | 0.00 | 0.00 | 80 | 1016.9 |
| 20260507173014 | 68 | 289 | 1.7 | 6.1 | 0.00 | 0.00 | 0.00 | 79 | 1017.3 |
| 20260507172509 | 68 | 248 | 5.2 | 6.1 | 0.00 | 0.00 | 0.00 | 81 | 1017.3 |
| 20260507172006 | 68 | 214 | 3.5 | 4.3 | 0.00 | 0.00 | 0.00 | 80 | 1017.3 |
| 20260507171501 | 68 | 253 | 0.9 | 1.7 | 0.00 | 0.00 | 0.00 | 80 | 1016.9 |
| 20260507171000 | 68 | 223 | 3.5 | 4.3 | 0.00 | 0.00 | 0.00 | 81 | 1017.3 |
| 20260507170455 | 67 | 186 | 0.0 | 0.9 | 0.00 | 0.00 | 0.00 | 82 | 1016.9 |
| 20260507165952 | 67 | 279 | 0.0 | 0.0 | 0.00 | 0.00 | 0.00 | 82 | 1017.3 |
| 20260507165448 | 67 | 233 | 0.0 | 0.0 | 0.00 | 0.00 | 0.00 | 82 | 1017.3 |
| 20260507164944 | 68 | 239 | 0.0 | 0.0 | 0.00 | 0.00 | 0.00 | 80 | 1016.9 |
| 20260507164441 | 67 | 276 | 0.9 | 2.6 | 0.00 | 0.00 | 0.00 | 81 | 1017.3 |
| 20260507163938 | 68 | 271 | 0.0 | 0.0 | 0.00 | 0.00 | 0.00 | 79 | 1017.3 |
| 20260507163435 | 68 | 206 | 0.0 | 0.0 | 0.00 | 0.00 | 0.00 | 79 | 1017.3 |
| 20260507162932 | 68 | 130 | 0.0 | 0.0 | 0.00 | 0.00 | 0.00 | 80 | 1017.3 |
| 20260507162427 | 68 | 285 | 0.0 | 0.0 | 0.00 | 0.00 | 0.00 | 79 | 1017.3 |
| 20260507161925 | 69 | 342 | 0.0 | 0.0 | 0.00 | 0.00 | 0.00 | 76 | 1017.3 |
| 20260507161420 | 68 | 74 | 0.0 | 0.0 | 0.00 | 0.00 | 0.00 | 78 | 1017.3 |
| 20260507160918 | 68 | 109 | 0.0 | 0.0 | 0.00 | 0.00 | 0.00 | 78 | 1017.3 |
| 20260507160414 | 67 | 215 | 0.0 | 0.0 | 0.00 | 0.00 | 0.00 | 81 | 1017.3 |
| 20260507155910 | 65 | 221 | 0.0 | 0.0 | 0.00 | 0.00 | 0.00 | 82 | 1017.3 |
| 20260507155406 | 65 | 282 | 0.0 | 0.0 | 0.00 | 0.00 | 0.00 | 83 | 1017.3 |
| 20260507154903 | 64 | 228 | 0.0 | 0.0 | 0.00 | 0.00 | 0.00 | 85 | 1017.6 |
| 20260507154400 | 64 | 302 | 0.0 | 0.0 | 0.00 | 0.00 | 0.00 | 86 | 1017.3 |
| 20260507153857 | 64 | 304 | 0.0 | 0.0 | 0.00 | 0.00 | 0.00 | 86 | 1017.3 |
| 20260507153353 | 64 | 283 | 0.0 | 0.0 | 0.00 | 0.00 | 0.00 | 87 | 1017.6 |
| 20260507152850 | 63 | 245 | 0.0 | 0.0 | 0.00 | 0.00 | 0.00 | 88 | 1017.3 |
| 20260507152347 | 63 | 266 | 0.0 | 0.0 | 0.00 | 0.00 | 0.00 | 88 | 1017.3 |
| 20260507151843 | 63 | 250 | 0.0 | 0.0 | 0.00 | 0.00 | 0.00 | 88 | 1017.6 |
| 20260507151339 | 63 | 289 | 0.0 | 0.0 | 0.00 | 0.00 | 0.00 | 89 | 1017.6 |
| 20260507150836 | 62 | 284 | 0.0 | 0.0 | 0.00 | 0.00 | 0.00 | 89 | 1017.6 |
| 20260507150333 | 62 | 258 | 0.0 | 0.0 | 0.00 | 0.00 | 0.00 | 91 | 1017.6 |
| 20260507145828 | 62 | 235 | 0.0 | 0.0 | 0.00 | 0.00 | 0.00 | 90 | 1017.3 |
| 20260507145325 | 62 | 266 | 0.0 | 0.0 | 0.00 | 0.00 | 0.00 | 91 | 1017.6 |
| 20260507144822 | 61 | 293 | 0.0 | 0.0 | 0.00 | 0.00 | 0.00 | 92 | 1017.3 |
| 20260507144320 | 62 | 276 | 0.0 | 0.0 | 0.00 | 0.00 | 0.00 | 91 | 1017.6 |
| 20260507143816 | 61 | 265 | 0.0 | 0.0 | 0.00 | 0.00 | 0.00 | 92 | 1017.3 |
| 20260507143313 | 61 | 244 | 0.0 | 0.0 | 0.00 | 0.00 | 0.00 | 92 | 1017.3 |
| 20260507142809 | 60 | 245 | 0.0 | 0.0 | 0.00 | 0.00 | 0.00 | 93 | 1017.3 |
| 20260507142307 | 60 | 246 | 0.0 | 0.0 | 0.00 | 0.00 | 0.00 | 94 | 1017.3 |
| 20260507141803 | 60 | 297 | 0.0 | 0.0 | 0.00 | 0.00 | 0.00 | 94 | 1016.9 |
| 20260507141259 | 60 | 306 | 0.0 | 0.0 | 0.00 | 0.00 | 0.00 | 95 | 1016.9 |
| 20260507140755 | 59 | 331 | 0.0 | 0.0 | 0.00 | 0.00 | 0.00 | 95 | 1017.3 |
| 20260507140247 | 59 | 334 | 0.0 | 0.0 | 0.00 | 0.00 | 0.00 | 96 | 1017.3 |
| 20260507135744 | 58 | 316 | 0.0 | 0.0 | 0.00 | 0.00 | 0.00 | 96 | 1017.3 |
| 20260507135242 | 58 | 328 | 0.0 | 0.0 | 0.00 | 0.00 | 0.00 | 97 | 1017.3 |
| 20260507134738 | 57 | 324 | 0.0 | 0.0 | 0.00 | 0.00 | 0.00 | 97 | 1016.9 |
| 20260507134234 | 56 | 318 | 0.0 | 0.0 | 0.00 | 0.00 | 0.00 | 97 | 1016.9 |
| 20260507133730 | 56 | 315 | 0.0 | 0.0 | 0.00 | 0.00 | 0.00 | 98 | 1016.9 |
| 20260507133227 | 55 | 315 | 0.0 | 0.0 | 0.00 | 0.00 | 0.00 | 98 | 1016.6 |
| 20260507132725 | 54 | 314 | 0.0 | 0.0 | 0.00 | 0.00 | 0.00 | 98 | 1016.6 |
| 20260507132222 | 54 | 311 | 0.0 | 0.0 | 0.00 | 0.00 | 0.00 | 98 | 1016.9 |
| 20260507131718 | 54 | 311 | 0.0 | 0.0 | 0.00 | 0.00 | 0.00 | 98 | 1016.9 |
| 20260507131216 | 54 | 310 | 0.0 | 0.0 | 0.00 | 0.00 | 0.00 | 98 | 1016.9 |
| 20260507130712 | 54 | 310 | 0.0 | 0.0 | 0.00 | 0.00 | 0.00 | 98 | 1016.9 |
| 20260507130210 | 55 | 310 | 0.0 | 0.0 | 0.00 | 0.00 | 0.00 | 98 | 1016.6 |
| 20260507125708 | 55 | 310 | 0.0 | 0.0 | 0.00 | 0.00 | 0.00 | 98 | 1016.6 |
| 20260507125206 | 55 | 310 | 0.0 | 0.0 | 0.00 | 0.00 | 0.00 | 98 | 1016.6 |
| 20260507124701 | 54 | 309 | 0.0 | 0.0 | 0.00 | 0.00 | 0.00 | 98 | 1016.6 |
| 20260507124159 | 54 | 309 | 0.0 | 0.0 | 0.00 | 0.00 | 0.00 | 98 | 1016.6 |
| 20260507123657 | 55 | 309 | 0.0 | 0.0 | 0.00 | 0.00 | 0.00 | 98 | 1016.6 |
| 20260507123154 | 55 | 309 | 0.0 | 0.0 | 0.00 | 0.00 | 0.00 | 98 | 1016.6 |
| 20260507122649 | 55 | 309 | 0.0 | 0.0 | 0.00 | 0.00 | 0.00 | 98 | 1016.6 |
| 20260507122145 | 55 | 309 | 0.0 | 0.0 | 0.00 | 0.00 | 0.00 | 98 | 1016.6 |
| 20260507121642 | 55 | 309 | 0.0 | 0.0 | 0.00 | 0.00 | 0.00 | 98 | 1016.6 |
| 20260507121137 | 54 | 308 | 0.0 | 0.0 | 0.00 | 0.00 | 0.00 | 98 | 1016.6 |
| 20260507120634 | 55 | 307 | 0.0 | 0.0 | 0.00 | 0.00 | 0.00 | 98 | 1016.6 |
| 20260507120131 | 55 | 307 | 0.0 | 0.0 | 0.00 | 0.00 | 0.00 | 98 | 1016.9 |
| 20260507115627 | 55 | 307 | 0.0 | 0.0 | 0.00 | 0.00 | 0.00 | 98 | 1016.6 |
| 20260507115123 | 55 | 306 | 0.0 | 0.0 | 0.00 | 0.00 | 0.00 | 98 | 1016.6 |
| 20260507114619 | 55 | 306 | 0.0 | 0.0 | 0.00 | 0.00 | 0.00 | 98 | 1016.9 |
| 20260507114116 | 55 | 305 | 0.0 | 0.0 | 0.00 | 0.00 | 0.00 | 98 | 1016.6 |
| 20260507113614 | 55 | 305 | 0.0 | 0.0 | 0.00 | 0.00 | 0.00 | 99 | 1016.6 |
| 20260507113110 | 55 | 304 | 0.0 | 0.0 | 0.00 | 0.00 | 0.00 | 98 | 1016.6 |
| 20260507112608 | 55 | 304 | 0.0 | 0.0 | 0.00 | 0.00 | 0.00 | 98 | 1016.6 |
| 20260507112104 | 55 | 303 | 0.0 | 0.0 | 0.00 | 0.00 | 0.00 | 99 | 1016.6 |
| 20260507111602 | 55 | 302 | 0.0 | 0.0 | 0.00 | 0.00 | 0.00 | 98 | 1016.6 |
| 20260507111058 | 56 | 301 | 0.0 | 0.0 | 0.00 | 0.00 | 0.00 | 98 | 1016.9 |
| 20260507110555 | 56 | 300 | 0.0 | 0.0 | 0.00 | 0.00 | 0.00 | 98 | 1016.9 |
| 20260507110051 | 55 | 300 | 0.0 | 0.0 | 0.00 | 0.00 | 0.00 | 98 | 1016.6 |
| 20260507105548 | 55 | 299 | 0.0 | 0.0 | 0.00 | 0.00 | 0.00 | 98 | 1016.9 |
| 20260507105044 | 56 | 298 | 0.0 | 0.0 | 0.00 | 0.00 | 0.00 | 98 | 1016.6 |
| 20260507104542 | 56 | 297 | 0.0 | 0.0 | 0.00 | 0.00 | 0.00 | 98 | 1016.9 |
| 20260507104038 | 56 | 295 | 0.0 | 0.0 | 0.00 | 0.00 | 0.00 | 98 | 1016.9 |
| 20260507103534 | 56 | 295 | 0.0 | 0.0 | 0.00 | 0.00 | 0.00 | 98 | 1017.3 |
| 20260507103031 | 56 | 295 | 0.0 | 0.0 | 0.00 | 0.00 | 0.00 | 98 | 1016.9 |
| 20260507102528 | 56 | 295 | 0.0 | 0.0 | 0.00 | 0.00 | 0.00 | 98 | 1016.9 |
| 20260507102024 | 56 | 294 | 0.0 | 0.0 | 0.00 | 0.00 | 0.00 | 98 | 1017.3 |
| 20260507101519 | 56 | 294 | 0.0 | 0.0 | 0.00 | 0.00 | 0.00 | 98 | 1017.3 |
| 20260507101016 | 57 | 294 | 0.0 | 0.0 | 0.00 | 0.00 | 0.00 | 98 | 1016.9 |
| 20260507100514 | 57 | 294 | 0.0 | 0.0 | 0.00 | 0.00 | 0.00 | 98 | 1016.9 |
| 20260507100011 | 57 | 294 | 0.0 | 0.0 | 0.00 | 0.00 | 0.00 | 98 | 1017.3 |
| 20260507095509 | 57 | 293 | 0.0 | 0.0 | 0.00 | 0.00 | 0.00 | 98 | 1016.9 |
| 20260507095005 | 58 | 293 | 0.0 | 0.0 | 0.00 | 0.00 | 0.00 | 98 | 1016.9 |
| 20260507094502 | 58 | 293 | 0.0 | 0.0 | 0.00 | 0.00 | 0.00 | 98 | 1017.3 |
| 20260507093959 | 58 | 293 | 0.0 | 0.0 | 0.00 | 0.00 | 0.00 | 97 | 1017.3 |
| 20260507093456 | 58 | 293 | 0.0 | 0.0 | 0.00 | 0.00 | 0.00 | 97 | 1017.3 |
| 20260507092955 | 58 | 293 | 0.0 | 0.0 | 0.00 | 0.00 | 0.00 | 97 | 1017.3 |
| 20260507092451 | 58 | 293 | 0.0 | 0.0 | 0.00 | 0.00 | 0.00 | 97 | 1017.3 |
| 20260507091947 | 58 | 292 | 0.0 | 0.0 | 0.00 | 0.00 | 0.00 | 97 | 1017.3 |
| 20260507091444 | 58 | 292 | 0.0 | 0.0 | 0.00 | 0.00 | 0.00 | 97 | 1017.3 |
| 20260507090940 | 58 | 292 | 0.0 | 0.0 | 0.00 | 0.00 | 0.00 | 97 | 1017.3 |
| 20260507090436 | 59 | 290 | 0.0 | 0.0 | 0.00 | 0.00 | 0.00 | 97 | 1017.3 |
| 20260507085933 | 59 | 289 | 0.0 | 0.0 | 0.00 | 0.00 | 0.00 | 97 | 1017.6 |
| 20260507085430 | 59 | 287 | 0.0 | 0.0 | 0.00 | 0.00 | 0.00 | 97 | 1017.6 |
| 20260507084927 | 59 | 280 | 0.0 | 0.0 | 0.00 | 0.00 | 0.00 | 96 | 1017.6 |
| 20260507084424 | 59 | 271 | 0.0 | 0.0 | 0.00 | 0.00 | 0.00 | 96 | 1017.6 |
| 20260507083921 | 59 | 257 | 0.0 | 0.0 | 0.00 | 0.00 | 0.00 | 96 | 1017.6 |
| 20260507083417 | 59 | 252 | 0.0 | 0.0 | 0.00 | 0.00 | 0.00 | 96 | 1017.6 |
| 20260507082914 | 59 | 257 | 0.0 | 0.0 | 0.00 | 0.00 | 0.00 | 95 | 1017.6 |
| 20260507082409 | 59 | 255 | 0.0 | 0.0 | 0.00 | 0.00 | 0.00 | 95 | 1017.9 |
| 20260507081907 | 59 | 254 | 0.0 | 0.0 | 0.00 | 0.00 | 0.00 | 95 | 1017.9 |
| 20260507081403 | 59 | 252 | 0.0 | 0.0 | 0.00 | 0.00 | 0.00 | 94 | 1017.9 |
| 20260507080859 | 59 | 195 | 0.0 | 0.0 | 0.00 | 0.00 | 0.00 | 94 | 1017.9 |
| 20260507080356 | 59 | 233 | 0.0 | 0.0 | 0.00 | 0.00 | 0.00 | 94 | 1017.9 |
| 20260507075851 | 59 | 212 | 0.0 | 0.0 | 0.00 | 0.00 | 0.00 | 93 | 1017.6 |
| 20260507075347 | 59 | 244 | 0.0 | 0.0 | 0.00 | 0.00 | 0.00 | 93 | 1017.9 |
| 20260507074844 | 59 | 246 | 0.0 | 0.0 | 0.00 | 0.00 | 0.00 | 93 | 1017.9 |
| 20260507074341 | 59 | 208 | 0.0 | 0.0 | 0.00 | 0.00 | 0.00 | 93 | 1017.9 |
| 20260507073838 | 59 | 234 | 0.0 | 0.0 | 0.00 | 0.00 | 0.00 | 93 | 1017.9 |
| 20260507073335 | 59 | 177 | 0.0 | 0.0 | 0.00 | 0.00 | 0.00 | 93 | 1018.3 |
| 20260507072832 | 59 | 190 | 0.0 | 0.0 | 0.00 | 0.00 | 0.00 | 93 | 1018.3 |
| 20260507072330 | 59 | 247 | 0.0 | 0.0 | 0.00 | 0.00 | 0.00 | 94 | 1018.3 |
| 20260507071827 | 59 | 205 | 0.0 | 0.0 | 0.00 | 0.00 | 0.00 | 95 | 1018.3 |
| 20260507071324 | 59 | 216 | 0.0 | 0.0 | 0.00 | 0.00 | 0.00 | 95 | 1018.3 |
| 20260507070820 | 59 | 255 | 0.0 | 0.0 | 0.00 | 0.00 | 0.00 | 96 | 1018.3 |
| 20260507070318 | 60 | 236 | 0.0 | 0.0 | 0.00 | 0.00 | 0.00 | 96 | 1017.9 |
| 20260507065814 | 60 | 236 | 0.0 | 0.0 | 0.00 | 0.00 | 0.00 | 96 | 1018.3 |
| 20260507065311 | 60 | 248 | 0.0 | 0.0 | 0.00 | 0.00 | 0.00 | 96 | 1017.9 |
| 20260507064808 | 60 | 243 | 0.0 | 0.0 | 0.00 | 0.00 | 0.00 | 96 | 1017.9 |
| 20260507064307 | 60 | 267 | 0.0 | 0.0 | 0.00 | 0.00 | 0.00 | 96 | 1018.3 |
| 20260507063804 | 60 | 247 | 0.0 | 0.0 | 0.00 | 0.00 | 0.00 | 96 | 1018.3 |
| 20260507063301 | 60 | 242 | 0.0 | 0.0 | 0.00 | 0.00 | 0.00 | 96 | 1018.3 |
| 20260507062757 | 60 | 231 | 0.0 | 0.0 | 0.00 | 0.00 | 0.00 | 96 | 1018.3 |
| 20260507062255 | 60 | 240 | 0.0 | 0.0 | 0.00 | 0.00 | 0.00 | 96 | 1018.3 |
| 20260507061753 | 60 | 263 | 0.0 | 0.0 | 0.00 | 0.00 | 0.00 | 96 | 1018.3 |
| 20260507061250 | 60 | 258 | 0.0 | 0.0 | 0.00 | 0.00 | 0.00 | 96 | 1018.3 |
| 20260507060748 | 60 | 234 | 0.0 | 0.0 | 0.00 | 0.00 | 0.00 | 96 | 1018.3 |
| 20260507060244 | 60 | 260 | 0.0 | 0.0 | 0.00 | 0.00 | 0.00 | 96 | 1018.3 |
| 20260507055741 | 60 | 232 | 0.0 | 0.0 | 0.00 | 0.00 | 0.00 | 96 | 1018.3 |
| 20260507055236 | 60 | 250 | 0.0 | 0.0 | 0.00 | 0.00 | 0.00 | 95 | 1018.3 |
| 20260507054733 | 60 | 216 | 0.0 | 0.0 | 0.00 | 0.00 | 0.00 | 95 | 1018.3 |
| 20260507054230 | 60 | 253 | 0.0 | 0.0 | 0.00 | 0.00 | 0.00 | 95 | 1018.3 |
| 20260507053727 | 60 | 221 | 4.3 | 7.0 | 0.00 | 0.00 | 0.00 | 95 | 1018.3 |
| 20260507053225 | 60 | 244 | 0.0 | 0.0 | 0.00 | 0.00 | 0.00 | 94 | 1018.3 |
| 20260507052724 | 60 | 263 | 0.0 | 0.9 | 0.00 | 0.00 | 0.00 | 94 | 1018.3 |
| 20260507052219 | 60 | 236 | 0.0 | 0.0 | 0.00 | 0.00 | 0.00 | 93 | 1018.3 |
| 20260507051718 | 60 | 213 | 0.0 | 0.0 | 0.00 | 0.00 | 0.00 | 93 | 1018.3 |
| 20260507051214 | 60 | 184 | 0.0 | 0.0 | 0.00 | 0.00 | 0.00 | 93 | 1018.3 |
| 20260507050711 | 60 | 196 | 0.0 | 0.0 | 0.00 | 0.00 | 0.00 | 92 | 1018.3 |
| 20260507050208 | 60 | 238 | 0.0 | 0.0 | 0.00 | 0.00 | 0.00 | 92 | 1018.3 |
| 20260507045705 | 60 | 243 | 0.0 | 0.0 | 0.00 | 0.00 | 0.00 | 93 | 1018.3 |
| 20260507045201 | 60 | 138 | 0.0 | 0.0 | 0.00 | 0.00 | 0.00 | 93 | 1017.9 |
| 20260507044658 | 60 | 149 | 0.0 | 0.0 | 0.00 | 0.00 | 0.00 | 93 | 1018.3 |
| 20260507044154 | 60 | 229 | 0.0 | 0.0 | 0.00 | 0.00 | 0.00 | 93 | 1018.3 |
| 20260507043651 | 60 | 187 | 0.0 | 0.0 | 0.00 | 0.00 | 0.00 | 93 | 1018.3 |
| 20260507043148 | 60 | 160 | 0.0 | 0.0 | 0.00 | 0.00 | 0.00 | 93 | 1018.3 |
| 20260507042644 | 61 | 248 | 0.0 | 0.0 | 0.00 | 0.00 | 0.00 | 93 | 1018.3 |
| 20260507042139 | 61 | 223 | 0.0 | 0.0 | 0.00 | 0.00 | 0.00 | 93 | 1018.3 |